THY3YM LIBD-LTFM

Flight info

Callsign THY3YM
Flight time 1h 31m
Altitude 37000
Route VURKE DCT PAPIZ DCT PINDO UM603 PEREN UN644 DIGTI UT162 DRAMO
Aircraft A321/M-SDE3FGHIRWY/LB1

Departure

Time 2026-05-04 20:08
Airport Bari Karol Wojtyła International Airport (LIBD)

Arrival

Time 2026-05-04 21:39
Airport İstanbul Airport (LTFM)
Time Latitude Longitude Altitude Speed Heading
2026-05-04 19:47 41.13495 16.76238 159 ft 0 kts 160°
2026-05-04 19:58 41.13515 16.76228 159 ft 4 kts 165°
2026-05-04 19:59 41.13542 16.76222 159 ft 4 kts 180°
2026-05-04 19:59 41.13566 16.76228 159 ft 4 kts 221°
2026-05-04 19:59 41.13574 16.76239 159 ft 0 kts 249°
2026-05-04 20:02 41.13573 16.76239 159 ft 1 kts 249°
2026-05-04 20:02 41.13558 16.76184 159 ft 11 kts 250°
2026-05-04 20:03 41.13581 16.76088 158 ft 12 kts 316°
2026-05-04 20:03 41.13636 16.75995 158 ft 14 kts 279°
2026-05-04 20:03 41.13610 16.75862 158 ft 17 kts 250°
2026-05-04 20:03 41.13565 16.75709 158 ft 19 kts 249°
2026-05-04 20:04 41.13514 16.75531 158 ft 22 kts 249°
2026-05-04 20:04 41.13457 16.75327 158 ft 25 kts 249°
2026-05-04 20:04 41.13393 16.75102 158 ft 27 kts 249°
2026-05-04 20:04 41.13326 16.74871 158 ft 26 kts 249°
2026-05-04 20:05 41.13264 16.74644 158 ft 25 kts 250°
2026-05-04 20:05 41.13214 16.74472 158 ft 10 kts 248°
2026-05-04 20:05 41.13187 16.74378 159 ft 12 kts 248°
2026-05-04 20:05 41.13167 16.74306 157 ft 6 kts 255°
2026-05-04 20:06 41.13169 16.74244 157 ft 8 kts 289°
2026-05-04 20:06 41.13202 16.74167 155 ft 12 kts 302°
2026-05-04 20:06 41.13288 16.74122 148 ft 14 kts 27°
2026-05-04 20:06 41.13326 16.74202 149 ft 2 kts 69°
2026-05-04 20:07 41.13326 16.74204 149 ft 0 kts 69°
2026-05-04 20:07 41.13382 16.74399 150 ft 61 kts 69°
2026-05-04 20:07 41.13622 16.75247 151 ft 132 kts 70°
2026-05-04 20:07 41.14010 16.76613 242 ft 176 kts 71°
2026-05-04 20:08 41.14425 16.78138 976 ft 174 kts 71°
2026-05-04 20:08 41.14842 16.79646 1715 ft 174 kts 71°
2026-05-04 20:08 41.15262 16.81153 2335 ft 174 kts 71°
2026-05-04 20:08 41.15680 16.82655 2925 ft 173 kts 70°
2026-05-04 20:09 41.16095 16.84150 3507 ft 173 kts 69°
2026-05-04 20:09 41.16545 16.85712 3791 ft 192 kts 68°
2026-05-04 20:09 41.17057 16.87465 4011 ft 215 kts 68°
2026-05-04 20:09 41.17629 16.89422 4228 ft 241 kts 68°
2026-05-04 20:10 41.18247 16.91576 4694 ft 257 kts 69°
2026-05-04 20:10 41.18735 16.93880 5374 ft 265 kts 84°
2026-05-04 20:10 41.18746 16.96395 5959 ft 276 kts 91°
2026-05-04 20:10 41.18701 16.98973 6681 ft 282 kts 91°
2026-05-04 20:11 41.18654 17.01585 7421 ft 285 kts 91°
2026-05-04 20:11 41.18608 17.04227 8212 ft 287 kts 91°
2026-05-04 20:11 41.18561 17.06877 9054 ft 287 kts 90°
2026-05-04 20:11 41.18516 17.09534 9903 ft 288 kts 90°
2026-05-04 20:12 41.18473 17.12215 10444 ft 299 kts 90°
2026-05-04 20:12 41.18432 17.15077 10610 ft 322 kts 89°
2026-05-04 20:12 41.18654 17.18105 10974 ft 335 kts 81°
2026-05-04 20:12 41.18984 17.21205 11585 ft 341 kts 81°
2026-05-04 20:13 41.19308 17.24340 12224 ft 346 kts 81°
2026-05-04 20:13 41.19627 17.27485 12863 ft 350 kts 81°
2026-05-04 20:13 41.19950 17.30710 13504 ft 355 kts 82°
2026-05-04 20:13 41.20276 17.33975 14123 ft 359 kts 81°
2026-05-04 20:14 41.20609 17.37275 14706 ft 363 kts 81°
2026-05-04 20:14 41.20947 17.40606 15322 ft 366 kts 81°
2026-05-04 20:14 41.21288 17.43968 15958 ft 368 kts 81°
2026-05-04 20:14 41.21630 17.47353 16575 ft 372 kts 81°
2026-05-04 20:15 41.21974 17.50777 17174 ft 375 kts 81°
2026-05-04 20:15 41.22318 17.54232 17774 ft 379 kts 81°
2026-05-04 20:15 41.22665 17.57718 18355 ft 383 kts 81°
2026-05-04 20:15 41.23015 17.61239 18871 ft 387 kts 81°
2026-05-04 20:16 41.23366 17.64793 19378 ft 390 kts 80°
2026-05-04 20:16 41.23718 17.68386 19891 ft 393 kts 80°
2026-05-04 20:16 41.24070 17.72003 20419 ft 397 kts 80°
2026-05-04 20:16 41.24424 17.75650 20949 ft 400 kts 80°
2026-05-04 20:17 41.24782 17.79322 21490 ft 402 kts 80°
2026-05-04 20:17 41.25143 17.83031 22001 ft 406 kts 80°
2026-05-04 20:17 41.25504 17.86769 22497 ft 410 kts 80°
2026-05-04 20:17 41.25866 17.90542 22985 ft 414 kts 80°
2026-05-04 20:18 41.26232 17.94350 23452 ft 417 kts 79°
2026-05-04 20:18 41.26601 17.98198 23877 ft 421 kts 79°
2026-05-04 20:18 41.26972 18.02070 24262 ft 424 kts 80°
2026-05-04 20:18 41.27121 18.06005 24637 ft 430 kts 90°
2026-05-04 20:19 41.26716 18.09969 25019 ft 437 kts 101°
2026-05-04 20:19 41.25757 18.13769 25388 ft 442 kts 112°
2026-05-04 20:19 41.24277 18.17372 25765 ft 447 kts 119°
2026-05-04 20:19 41.22682 18.20925 26129 ft 449 kts 119°
2026-05-04 20:20 41.21082 18.24503 26491 ft 452 kts 119°
2026-05-04 20:20 41.19480 18.28106 26849 ft 455 kts 119°
2026-05-04 20:20 41.17866 18.31736 27205 ft 457 kts 119°
2026-05-04 20:20 41.16244 18.35380 27557 ft 460 kts 119°
2026-05-04 20:21 41.14606 18.39039 27908 ft 463 kts 119°
2026-05-04 20:21 41.12952 18.42714 28258 ft 465 kts 119°
2026-05-04 20:21 41.09599 18.50141 28885 ft 472 kts 119°
2026-05-04 20:22 41.07911 18.53887 29207 ft 475 kts 118°
2026-05-04 20:22 41.06213 18.57652 29528 ft 477 kts 118°
2026-05-04 20:22 41.04505 18.61436 29842 ft 480 kts 118°
2026-05-04 20:22 41.02786 18.65246 30149 ft 483 kts 118°
2026-05-04 20:23 41.01057 18.69066 30411 ft 485 kts 119°
2026-05-04 20:23 40.99314 18.72900 30693 ft 487 kts 119°
2026-05-04 20:23 40.97561 18.76750 30972 ft 490 kts 119°
2026-05-04 20:23 40.95797 18.80623 31253 ft 493 kts 118°
2026-05-04 20:24 40.94052 18.84457 31556 ft 493 kts 118°
2026-05-04 20:24 40.92285 18.88339 31953 ft 492 kts 118°
2026-05-04 20:24 40.90543 18.92226 32353 ft 490 kts 116°
2026-05-04 20:24 40.89112 18.96299 32741 ft 486 kts 108°
2026-05-04 20:25 40.88101 19.00544 33131 ft 482 kts 101°
2026-05-04 20:25 40.87271 19.04828 33517 ft 481 kts 101°
2026-05-04 20:25 40.86438 19.09103 33899 ft 480 kts 101°
2026-05-04 20:25 40.85600 19.13368 34279 ft 479 kts 101°
2026-05-04 20:26 40.84759 19.17629 34612 ft 478 kts 101°
2026-05-04 20:26 40.83915 19.21873 34925 ft 478 kts 101°
2026-05-04 20:26 40.83071 19.26112 35233 ft 477 kts 101°
2026-05-04 20:26 40.82227 19.30355 35539 ft 477 kts 101°
2026-05-04 20:27 40.81387 19.34588 35830 ft 477 kts 101°
2026-05-04 20:27 40.80549 19.38824 36121 ft 476 kts 101°
2026-05-04 20:27 40.79720 19.42994 36412 ft 476 kts 101°
2026-05-04 20:27 40.78876 19.47217 36720 ft 476 kts 101°
2026-05-04 20:28 40.78030 19.51435 36984 ft 476 kts 101°
2026-05-04 20:28 40.77182 19.55657 37127 ft 476 kts 101°
2026-05-04 20:28 40.75484 19.64089 37149 ft 475 kts 101°
2026-05-04 20:29 40.73785 19.72498 37149 ft 475 kts 101°
2026-05-04 20:29 40.72072 19.80907 37173 ft 475 kts 101°
2026-05-04 20:30 40.70362 19.89293 37152 ft 474 kts 101°
2026-05-04 20:30 40.68652 19.97691 37164 ft 475 kts 102°
2026-05-04 20:31 40.66919 20.06093 37165 ft 475 kts 102°
2026-05-04 20:31 40.65269 20.14057 37201 ft 476 kts 102°
2026-05-04 20:32 40.63824 20.21034 37202 ft 475 kts 102°
2026-05-04 20:32 40.62084 20.29437 37197 ft 475 kts 102°
2026-05-04 20:33 40.60335 20.37813 37201 ft 475 kts 102°
2026-05-04 20:33 40.58570 20.46190 37199 ft 475 kts 102°
2026-05-04 20:34 40.56809 20.54561 37214 ft 475 kts 102°
2026-05-04 20:34 40.55046 20.62923 37210 ft 474 kts 102°
2026-05-04 20:35 40.53283 20.71267 37206 ft 474 kts 102°
2026-05-04 20:35 40.51506 20.79612 37209 ft 474 kts 102°
2026-05-04 20:36 40.49719 20.87939 37217 ft 474 kts 102°
2026-05-04 20:36 40.48038 20.96297 37210 ft 470 kts 96°
2026-05-04 20:37 40.47231 21.04723 37208 ft 468 kts 93°
2026-05-04 20:37 40.46448 21.13210 37208 ft 468 kts 93°
2026-05-04 20:38 40.45649 21.21699 37212 ft 468 kts 93°
2026-05-04 20:38 40.45121 21.30166 37201 ft 462 kts 84°
2026-05-04 20:39 40.45225 21.38608 37197 ft 463 kts 85°
2026-05-04 20:39 40.45729 21.46958 37196 ft 456 kts 75°
2026-05-04 20:40 40.46837 21.55158 37186 ft 456 kts 75°
2026-05-04 20:40 40.47945 21.63366 37185 ft 456 kts 75°
2026-05-04 20:41 40.49043 21.71589 37186 ft 457 kts 75°
2026-05-04 20:41 40.50133 21.79806 37201 ft 457 kts 75°
2026-05-04 20:42 40.51220 21.88016 37192 ft 457 kts 76°
2026-05-04 20:42 40.52298 21.96242 37176 ft 457 kts 76°
2026-05-04 20:43 40.53369 22.04472 37170 ft 457 kts 76°
2026-05-04 20:43 40.54435 22.12698 37150 ft 457 kts 76°
2026-05-04 20:44 40.55501 22.20930 37142 ft 457 kts 76°
2026-05-04 20:44 40.56559 22.29153 37138 ft 456 kts 76°
2026-05-04 20:45 40.57610 22.37387 37123 ft 456 kts 76°
2026-05-04 20:45 40.58658 22.45628 37123 ft 456 kts 76°
2026-05-04 20:46 40.59695 22.53855 37126 ft 456 kts 77°
2026-05-04 20:46 40.60728 22.62089 37121 ft 456 kts 77°
2026-05-04 20:47 40.61751 22.70320 37120 ft 456 kts 77°
2026-05-04 20:47 40.62770 22.78550 37139 ft 455 kts 77°
2026-05-04 20:48 40.63787 22.86777 37141 ft 455 kts 77°
2026-05-04 20:48 40.64798 22.95001 37130 ft 455 kts 77°
2026-05-04 20:49 40.65798 23.03226 37131 ft 455 kts 77°
2026-05-04 20:49 40.66784 23.11393 37135 ft 454 kts 78°
2026-05-04 20:50 40.67780 23.19658 37125 ft 454 kts 78°
2026-05-04 20:50 40.68760 23.27867 37119 ft 453 kts 78°
2026-05-04 20:51 40.69727 23.36076 37118 ft 453 kts 78°
2026-05-04 20:51 40.70698 23.44283 37145 ft 453 kts 78°
2026-05-04 20:52 40.71657 23.52483 37122 ft 452 kts 78°
2026-05-04 20:52 40.72606 23.60663 37117 ft 452 kts 78°
2026-05-04 20:53 40.73558 23.68852 37119 ft 451 kts 78°
2026-05-04 20:53 40.74500 23.76969 37124 ft 451 kts 78°
2026-05-04 20:54 40.75435 23.85188 37113 ft 451 kts 78°
2026-05-04 20:54 40.76357 23.93364 37106 ft 451 kts 78°
2026-05-04 20:55 40.77273 24.01498 37107 ft 451 kts 78°
2026-05-04 20:55 40.78198 24.09723 37116 ft 451 kts 78°
2026-05-04 20:56 40.79108 24.17851 37109 ft 451 kts 78°
2026-05-04 20:56 40.80017 24.26034 37109 ft 451 kts 79°
2026-05-04 20:57 40.80918 24.34273 37106 ft 450 kts 79°
2026-05-04 20:57 40.81808 24.42458 37099 ft 450 kts 79°
2026-05-04 20:58 40.82692 24.50587 37091 ft 450 kts 79°
2026-05-04 20:58 40.83571 24.58768 37081 ft 450 kts 79°
2026-05-04 20:59 40.84443 24.66957 37080 ft 450 kts 79°
2026-05-04 20:59 40.85315 24.75152 37082 ft 450 kts 79°
2026-05-04 21:00 40.86180 24.83336 37085 ft 450 kts 79°
2026-05-04 21:00 40.87038 24.91534 37097 ft 450 kts 79°
2026-05-04 21:01 40.87893 24.99726 37104 ft 450 kts 79°
2026-05-04 21:01 40.88741 25.07899 37115 ft 449 kts 79°
2026-05-04 21:02 40.89580 25.16080 37109 ft 449 kts 79°
2026-05-04 21:02 40.90412 25.24258 37110 ft 449 kts 79°
2026-05-04 21:03 40.91237 25.32446 37109 ft 449 kts 79°
2026-05-04 21:03 40.92059 25.40620 37114 ft 449 kts 79°
2026-05-04 21:04 40.92873 25.48787 37113 ft 448 kts 79°
2026-05-04 21:04 40.93679 25.56958 37108 ft 448 kts 79°
2026-05-04 21:05 40.94487 25.65126 37116 ft 447 kts 79°
2026-05-04 21:05 40.95287 25.73277 37105 ft 446 kts 79°
2026-05-04 21:06 40.96070 25.81408 37095 ft 445 kts 80°
2026-05-04 21:06 40.96841 25.89515 37079 ft 444 kts 80°
2026-05-04 21:07 40.97224 25.93557 36764 ft 443 kts 80°
2026-05-04 21:07 40.97609 25.97600 36179 ft 443 kts 79°
2026-05-04 21:07 40.97993 26.01645 35563 ft 444 kts 80°
2026-05-04 21:07 40.98378 26.05700 35000 ft 443 kts 80°
2026-05-04 21:08 40.98757 26.09730 34511 ft 440 kts 80°
2026-05-04 21:08 40.99133 26.13742 34035 ft 438 kts 81°
2026-05-04 21:08 40.99505 26.17731 33525 ft 435 kts 81°
2026-05-04 21:08 40.99870 26.21682 33055 ft 430 kts 81°
2026-05-04 21:09 41.00228 26.25597 32596 ft 426 kts 80°
2026-05-04 21:09 41.00584 26.29479 32123 ft 423 kts 80°
2026-05-04 21:09 41.00937 26.33328 31654 ft 419 kts 80°
2026-05-04 21:09 41.01287 26.37143 31190 ft 416 kts 80°
2026-05-04 21:10 41.01632 26.40925 30728 ft 412 kts 80°
2026-05-04 21:10 41.01974 26.44677 30276 ft 409 kts 80°
2026-05-04 21:10 41.02311 26.48399 29789 ft 405 kts 80°
2026-05-04 21:10 41.02642 26.52081 29351 ft 400 kts 80°
2026-05-04 21:11 41.02968 26.55717 28935 ft 395 kts 79°
2026-05-04 21:11 41.03291 26.59304 28516 ft 391 kts 79°
2026-05-04 21:11 41.03415 26.62908 28087 ft 392 kts 88°
2026-05-04 21:11 41.03318 26.66490 27660 ft 389 kts 88°
2026-05-04 21:12 41.03226 26.70017 27246 ft 386 kts 88°
2026-05-04 21:12 41.03132 26.73601 26828 ft 384 kts 87°
2026-05-04 21:12 41.03039 26.77078 26423 ft 382 kts 87°
2026-05-04 21:12 41.02941 26.80629 26006 ft 380 kts 87°
2026-05-04 21:13 41.02847 26.84069 25581 ft 378 kts 87°
2026-05-04 21:13 41.02752 26.87536 25176 ft 376 kts 87°
2026-05-04 21:13 41.02658 26.90992 24723 ft 375 kts 86°
2026-05-04 21:13 41.02563 26.94437 24287 ft 374 kts 86°
2026-05-04 21:14 41.02467 26.97871 23839 ft 373 kts 86°
2026-05-04 21:14 41.02368 27.01297 23358 ft 372 kts 86°
2026-05-04 21:14 41.02269 27.04707 22885 ft 369 kts 86°
2026-05-04 21:14 41.02169 27.08090 22434 ft 366 kts 86°
2026-05-04 21:15 41.02067 27.11443 21976 ft 363 kts 86°
2026-05-04 21:15 41.01966 27.14769 21527 ft 360 kts 86°
2026-05-04 21:15 41.01866 27.18065 21095 ft 357 kts 86°
2026-05-04 21:15 41.01763 27.21345 20626 ft 354 kts 86°
2026-05-04 21:16 41.01659 27.24590 20180 ft 351 kts 86°
2026-05-04 21:16 41.01590 27.26770 19881 ft 349 kts 86°
2026-05-04 21:16 41.01493 27.29966 19439 ft 347 kts 86°
2026-05-04 21:16 41.01398 27.33111 19005 ft 344 kts 86°
2026-05-04 21:17 41.01299 27.36269 18567 ft 342 kts 86°
2026-05-04 21:17 41.01196 27.39411 18094 ft 340 kts 86°
2026-05-04 21:17 41.01094 27.42525 17651 ft 336 kts 86°
2026-05-04 21:17 41.00990 27.45599 17224 ft 332 kts 86°
2026-05-04 21:18 41.00889 27.48637 16815 ft 328 kts 86°
2026-05-04 21:18 41.00789 27.51644 16383 ft 325 kts 86°
2026-05-04 21:18 41.00688 27.54627 15967 ft 323 kts 86°
2026-05-04 21:18 41.00590 27.57579 15557 ft 320 kts 86°
2026-05-04 21:19 41.00494 27.60514 15154 ft 317 kts 86°
2026-05-04 21:19 41.00425 27.62601 14865 ft 315 kts 86°
2026-05-04 21:19 41.00324 27.65487 14467 ft 313 kts 86°
2026-05-04 21:19 41.00224 27.68362 14068 ft 312 kts 86°
2026-05-04 21:20 41.00121 27.71226 13646 ft 310 kts 86°
2026-05-04 21:20 41.00021 27.74072 13241 ft 307 kts 86°
2026-05-04 21:20 40.99923 27.76883 12858 ft 304 kts 86°
2026-05-04 21:20 40.99826 27.79663 12476 ft 301 kts 86°
2026-05-04 21:21 40.99733 27.82385 12098 ft 298 kts 86°
2026-05-04 21:21 40.99634 27.85112 11710 ft 296 kts 86°
2026-05-04 21:21 40.99531 27.87807 11441 ft 289 kts 86°
2026-05-04 21:21 40.99430 27.90463 11034 ft 289 kts 86°
2026-05-04 21:22 40.99335 27.93099 10649 ft 288 kts 86°
2026-05-04 21:22 40.99242 27.95720 10321 ft 284 kts 86°
2026-05-04 21:22 40.99145 27.98325 9995 ft 281 kts 86°
2026-05-04 21:22 40.99045 28.00915 9572 ft 280 kts 86°
2026-05-04 21:23 40.98945 28.03487 9179 ft 278 kts 86°
2026-05-04 21:23 40.98846 28.06022 8888 ft 274 kts 86°
2026-05-04 21:23 40.98749 28.08540 8614 ft 274 kts 86°
2026-05-04 21:23 40.98652 28.11053 8327 ft 273 kts 86°
2026-05-04 21:24 40.98557 28.13555 8038 ft 272 kts 86°
2026-05-04 21:24 40.98462 28.16049 7758 ft 271 kts 86°
2026-05-04 21:24 40.98367 28.18534 7479 ft 270 kts 86°
2026-05-04 21:24 40.98272 28.21010 7196 ft 269 kts 86°
2026-05-04 21:25 40.98174 28.23483 6925 ft 268 kts 86°
2026-05-04 21:25 40.98074 28.25942 6653 ft 268 kts 86°
2026-05-04 21:25 40.98007 28.27571 6477 ft 267 kts 86°
2026-05-04 21:25 40.97956 28.28775 6333 ft 267 kts 86°
2026-05-04 21:26 40.97855 28.31218 6042 ft 265 kts 86°
2026-05-04 21:26 40.97758 28.33612 5767 ft 261 kts 86°
2026-05-04 21:26 40.97661 28.35996 5484 ft 257 kts 86°
2026-05-04 21:26 40.97456 28.38344 5217 ft 259 kts 98°
2026-05-04 21:27 40.96751 28.40540 5043 ft 260 kts 114°
2026-05-04 21:27 40.95868 28.42553 5014 ft 246 kts 113°
2026-05-04 21:27 40.95028 28.44495 5015 ft 242 kts 112°
2026-05-04 21:27 40.94197 28.46438 5021 ft 242 kts 112°
2026-05-04 21:28 40.93366 28.48377 5022 ft 242 kts 112°
2026-05-04 21:28 40.92535 28.50312 5021 ft 243 kts 112°
2026-05-04 21:28 40.91699 28.52253 5030 ft 243 kts 113°
2026-05-04 21:28 40.90861 28.54190 5031 ft 242 kts 113°
2026-05-04 21:29 40.90035 28.56129 5024 ft 241 kts 109°
2026-05-04 21:29 40.89552 28.58191 5024 ft 231 kts 90°
2026-05-04 21:29 40.89574 28.60272 5030 ft 223 kts 73°
2026-05-04 21:29 40.90006 28.62205 5029 ft 218 kts 64°
2026-05-04 21:30 40.90498 28.64074 5030 ft 217 kts 64°
2026-05-04 21:30 40.90987 28.65959 5030 ft 217 kts 65°
2026-05-04 21:30 40.91533 28.67811 5041 ft 215 kts 55°
2026-05-04 21:30 40.92437 28.69341 5035 ft 209 kts 38°
2026-05-04 21:31 40.94785 28.71229 5039 ft 197 kts 26°
2026-05-04 21:31 40.95986 28.72110 5038 ft 197 kts 27°
2026-05-04 21:31 40.97194 28.72951 5036 ft 195 kts 20°
2026-05-04 21:32 40.98504 28.73265 5038 ft 191 kts
2026-05-04 21:32 40.99815 28.73278 5050 ft 183 kts
2026-05-04 21:32 41.01081 28.73259 5044 ft 181 kts
2026-05-04 21:32 41.02330 28.73236 4998 ft 177 kts
2026-05-04 21:33 41.03557 28.73213 4815 ft 176 kts
2026-05-04 21:33 41.04779 28.73190 4591 ft 175 kts
2026-05-04 21:33 41.05997 28.73166 4355 ft 173 kts
2026-05-04 21:33 41.07165 28.73144 4123 ft 166 kts
2026-05-04 21:34 41.08301 28.73122 3903 ft 165 kts 360°
2026-05-04 21:34 41.09448 28.73100 3670 ft 165 kts 359°
2026-05-04 21:34 41.10601 28.73078 3455 ft 166 kts 359°
2026-05-04 21:34 41.11756 28.73055 3205 ft 166 kts 359°
2026-05-04 21:35 41.12911 28.73033 2981 ft 167 kts 360°
2026-05-04 21:35 41.14071 28.73011 2754 ft 167 kts 359°
2026-05-04 21:35 41.15238 28.72988 2527 ft 168 kts 359°
2026-05-04 21:35 41.16383 28.72966 2309 ft 158 kts 358°
2026-05-04 21:36 41.17463 28.72945 2097 ft 152 kts 358°
2026-05-04 21:36 41.18493 28.72926 1889 ft 143 kts 357°
2026-05-04 21:36 41.19473 28.72901 1678 ft 139 kts 356°
2026-05-04 21:36 41.20432 28.72870 1493 ft 138 kts 356°
2026-05-04 21:37 41.21387 28.72877 1321 ft 138 kts 358°
2026-05-04 21:37 41.22348 28.72872 1124 ft 139 kts 357°
2026-05-04 21:37 41.23316 28.72857 927 ft 140 kts 356°
2026-05-04 21:37 41.24293 28.72819 741 ft 141 kts 357°
2026-05-04 21:38 41.25271 28.72803 559 ft 140 kts 357°
2026-05-04 21:38 41.26245 28.72780 381 ft 140 kts 357°
2026-05-04 21:38 41.27135 28.72755 334 ft 113 kts 359°
2026-05-04 21:38 41.27746 28.72740 332 ft 61 kts 359°
2026-05-04 21:39 41.28017 28.72799 330 ft 29 kts 28°
2026-05-04 21:39 41.28123 28.72885 329 ft 12 kts 52°
2026-05-04 21:39 41.28087 28.72960 331 ft 12 kts 174°
2026-05-04 21:39 41.27997 28.72961 330 ft 14 kts 178°
2026-05-04 21:40 41.27893 28.72965 333 ft 16 kts 179°
2026-05-04 21:40 41.27776 28.72968 334 ft 18 kts 179°
2026-05-04 21:40 41.27647 28.72971 334 ft 19 kts 178°
2026-05-04 21:40 41.27506 28.72975 333 ft 21 kts 179°
2026-05-04 21:41 41.27413 28.72987 332 ft 11 kts 149°
2026-05-04 21:41 41.27391 28.73085 334 ft 12 kts 89°
2026-05-04 21:41 41.27393 28.73208 334 ft 14 kts 89°
2026-05-04 21:41 41.27395 28.73349 334 ft 16 kts 89°
2026-05-04 21:42 41.27398 28.73505 334 ft 18 kts 89°
2026-05-04 21:42 41.27399 28.73663 334 ft 16 kts 89°
2026-05-04 21:42 41.27401 28.73803 334 ft 14 kts 89°
2026-05-04 21:42 41.27403 28.73931 334 ft 15 kts 89°
2026-05-04 21:43 41.27404 28.74083 334 ft 18 kts 89°
2026-05-04 21:43 41.27407 28.74259 332 ft 19 kts 89°
2026-05-04 21:43 41.27410 28.74429 331 ft 17 kts 89°
2026-05-04 21:43 41.27407 28.74558 334 ft 10 kts 109°
2026-05-04 21:44 41.27361 28.74599 330 ft 8 kts 172°
2026-05-04 21:44 41.27295 28.74600 331 ft 11 kts 179°
2026-05-04 21:44 41.27199 28.74602 331 ft 16 kts 179°
2026-05-04 21:44 41.27092 28.74604 330 ft 14 kts 179°
2026-05-04 21:45 41.26998 28.74607 330 ft 12 kts 179°
2026-05-04 21:45 41.26919 28.74609 331 ft 10 kts 179°
2026-05-04 21:45 41.26846 28.74610 334 ft 12 kts 179°
2026-05-04 21:45 41.26759 28.74612 329 ft 14 kts 179°
2026-05-04 21:46 41.26659 28.74614 332 ft 15 kts 179°
2026-05-04 21:46 41.26563 28.74616 332 ft 13 kts 181°
2026-05-04 21:46 41.26483 28.74590 334 ft 11 kts 197°
2026-05-04 21:46 41.26426 28.74549 333 ft 9 kts 233°
2026-05-04 21:47 41.26393 28.74514 333 ft 5 kts 196°
2026-05-04 21:47 41.26367 28.74512 333 ft 3 kts 179°
2026-05-04 21:47 41.26359 28.74512 330 ft 0 kts 179°